Location: Unspecified
(0.0000°N, 0.0000°E)
Time: 23:27:24
(UTC+02:00)

Cosmos 1626 Rocket - Visible Passes

Search period start: 03 September 2015 00:00
Search period end: 13 September 2015 00:00
Orbit: 604 x 631 km, 82.5° (Epoch: 02 September)

Date Brightness Start Highest point End Pass type
(mag) Time Alt. Az. Time Alt. Az. Time Alt. Az.
03 Sep 6.0 20:57:06 10° NW 21:00:51 26° W 21:04:29 10° SSW visible
04 Sep 6.7 07:28:50 10° SE 07:31:36 17° E 07:34:34 10° NE visible
04 Sep 7.0 21:16:11 10° WNW 21:17:54 12° W 21:19:15 10° WSW visible
07 Sep 6.2 20:27:18 10° NW 20:31:00 25° W 20:34:36 10° SSW visible
08 Sep 6.6 06:58:54 10° SE 07:01:45 18° E 07:04:47 10° NE visible
08 Sep 7.2 20:46:32 10° WNW 20:48:03 11° W 20:49:13 10° WSW visible
09 Sep 5.1 07:14:42 10° SSE 07:18:45 40° E 07:22:50 10° NNE visible
10 Sep 3.5 07:31:21 10° S 07:35:41 85° W 07:40:02 10° N visible
12 Sep 6.4 06:28:59 10° SE 06:31:53 18° E 06:35:00 10° NE visible
